Cape Girardeau, MO

7:04 PM CDT on May 24, 2018 (GMT -0500)
Cape Girardeau Regional

Weather History for KCGI - June, 2013

Change the Weather History Date:

Sunday, June 9, 2013

  Actual Average Record
Temperature  
Mean Temperature 71 °F 74 °F  
Max Temperature 79 °F 85 °F 99 °F (1963)
Min Temperature 63 °F 63 °F 49 °F (1978)
Degree Days  
Heating Degree Days 0 0  
Month to date heating degree days 0 1  
Since 1 June heating degree days 0 1  
Since 1 July heating degree days 4359 4387  
Cooling Degree Days 6 9  
Month to date cooling degree days 46 71  
Year to date cooling degree days 217 223  
Since 1 June cooling degree days 46 71  
Growing Degree Days 21 (Base 50)    
Moisture  
Dew Point 64 °F    
Average Humidity 82    
Maximum Humidity 100    
Minimum Humidity 64    
Precipitation  
Precipitation 0.29 in 0.12 in 1.41 in (1993)
Month to date precipitation 3.73 1.16  
Year to date precipitation 19.90 22.26  
Sea Level Pressure  
Sea Level Pressure 29.88 in    
Wind  
Wind Speed 6 mph (SSE)    
Max Wind Speed 21 mph    
Max Gust Speed 24 mph    
Visibility 7 miles    
Events Fog , Rain , Thunderstorm    
T = Trace of Precipitation, MM = Missing Value Source: NWS Daily Summary

Daily Weather History Graph

Daily Weather History Graph

Search for Another Location

Airport or City:

Astronomy

Jun. 09, 2013 Rise Set
Actual Time 5:37 AM CDT 8:17 PM CDT
Civil Twilight 5:06 AM CDT 8:48 PM CDT
Nautical Twilight 4:28 AM CDT 9:27 PM CDT
Astronomical Twilight 3:45 AM CDT 10:10 PM CDT
Moon 6:32 AM CDT (6/9) 9:06 PM CDT (6/9)
Length of Visible Light 15h 41m
Length of Day
14h 40m
New Moon, 1% of the Moon is Illuminated
Jun 9
New Moon
Jun 16
First Quarter
Jun 23
Full
Jun 29
Last Quarter
Jul 8
New

Hourly Weather History & Observations

Time (CDT) Temp. Dew Point Humidity Pressure Visibility Wind Dir Wind Speed Gust Speed Precip Events Conditions
12:53 AM 69.1 °F 60.1 °F 73% 29.97 in 10.0 mi SSE 6.9 mph - N/A   Overcast
1:53 AM 66.9 °F 59.0 °F 76% 29.96 in 10.0 mi SE 6.9 mph - N/A   Scattered Clouds
2:53 AM 68.0 °F 59.0 °F 73% 29.96 in 10.0 mi SSE 5.8 mph - N/A   Overcast
3:53 AM 66.9 °F 57.9 °F 73% 29.96 in 10.0 mi SSE 6.9 mph - N/A   Partly Cloudy
4:53 AM 66.0 °F 57.9 °F 75% 29.94 in 10.0 mi SSE 8.1 mph - N/A   Partly Cloudy
5:53 AM 64.9 °F 57.9 °F 78% 29.94 in 10.0 mi SSE 6.9 mph - N/A   Clear
6:53 AM 66.9 °F 59.0 °F 76% 29.95 in 10.0 mi SSE 8.1 mph - N/A   Clear
7:53 AM 70.0 °F 60.1 °F 71% 29.94 in 10.0 mi SSE 5.8 mph - N/A   Clear
8:53 AM 73.9 °F 61.0 °F 64% 29.94 in 10.0 mi SSE 8.1 mph - N/A   Clear
9:53 AM 75.9 °F 64.0 °F 67% 29.94 in 10.0 mi SE 8.1 mph - N/A   Mostly Cloudy
10:53 AM 75.9 °F 64.9 °F 69% 29.94 in 10.0 mi SSE 9.2 mph - N/A   Mostly Cloudy
11:53 AM 78.1 °F 66.0 °F 66% 29.91 in 10.0 mi SSE 10.4 mph 17.3 mph N/A   Mostly Cloudy
12:28 PM 78.8 °F 66.2 °F 65% 29.90 in 10.0 mi South 10.4 mph - N/A   Mostly Cloudy
12:46 PM 77.0 °F 66.2 °F 69% 29.90 in 10.0 mi SSE 9.2 mph - N/A   Mostly Cloudy
12:53 PM 77.0 °F 66.0 °F 69% 29.88 in 10.0 mi SSE 6.9 mph - N/A   Overcast
1:30 PM 75.2 °F 66.2 °F 73% 29.88 in 10.0 mi SE 4.6 mph - N/A   Overcast
1:51 PM 77.0 °F 66.2 °F 69% 29.87 in 10.0 mi South 9.2 mph - N/A   Mostly Cloudy
1:53 PM 77.0 °F 66.9 °F 71% 29.86 in 10.0 mi South 9.2 mph - N/A   Mostly Cloudy
2:49 PM 73.4 °F 62.6 °F 69% 29.87 in 10.0 mi WNW 10.4 mph - 0.00 in   Mostly Cloudy
2:53 PM 73.0 °F 62.1 °F 68% 29.86 in 10.0 mi WNW 9.2 mph - 0.00 in   Mostly Cloudy
3:10 PM 71.6 °F 64.4 °F 78% 29.87 in 2.5 mi WNW 11.5 mph - 0.06 in Rain , Thunderstorm Heavy Rain
3:15 PM 69.8 °F 64.4 °F 83% 29.86 in 0.8 mi Variable 3.5 mph - 0.19 in Rain , Thunderstorm Heavy Rain
3:24 PM 69.8 °F 66.2 °F 88% 29.84 in 0.8 mi ENE 5.8 mph - 0.22 in Rain Light Rain
3:26 PM 69.8 °F 66.2 °F 88% 29.84 in 2.0 mi East 4.6 mph - 0.22 in Rain Light Rain
3:33 PM 69.8 °F 66.2 °F 88% 29.83 in 10.0 mi NE 5.8 mph - 0.22 in Rain Light Rain
3:53 PM 71.1 °F 66.9 °F 87% 29.84 in 10.0 mi ESE 5.8 mph - 0.22 in   Scattered Clouds
4:53 PM 73.0 °F 66.9 °F 81% 29.86 in 10.0 mi Calm Calm - N/A   Mostly Cloudy
5:24 PM 71.6 °F 68.0 °F 88% 29.86 in 9.0 mi WNW 13.8 mph 18.4 mph N/A Thunderstorm Mostly Cloudy
5:38 PM 68.0 °F 66.2 °F 94% 29.88 in 2.0 mi West 17.3 mph 24.2 mph 0.05 in Rain Heavy Rain
5:49 PM 68.0 °F 64.4 °F 88% 29.85 in 3.0 mi NW 9.2 mph 19.6 mph 0.07 in Rain Rain
5:53 PM 68.0 °F 64.9 °F 90% 29.84 in 5.0 mi NNW 8.1 mph - 0.07 in Rain Light Rain
6:53 PM 69.1 °F 66.0 °F 90% 29.82 in 10.0 mi NNE 4.6 mph - 0.00 in   Mostly Cloudy
7:53 PM 68.0 °F 64.9 °F 90% 29.82 in 10.0 mi East 3.5 mph - N/A   Mostly Cloudy
8:51 PM 66.2 °F 64.4 °F 94% 29.84 in 10.0 mi Calm Calm - N/A   Scattered Clouds
8:53 PM 66.9 °F 64.9 °F 93% 29.83 in 10.0 mi Calm Calm - N/A   Scattered Clouds
9:31 PM 66.2 °F 66.2 °F 100% 29.84 in 9.0 mi Calm Calm - N/A   Mostly Cloudy
9:53 PM 66.9 °F 66.0 °F 97% 29.85 in 7.0 mi SE 3.5 mph - N/A   Overcast
10:29 PM 66.2 °F 64.4 °F 94% 29.85 in 1.8 mi Calm Calm - N/A   Scattered Clouds
10:34 PM 64.4 °F 64.4 °F 100% 29.86 in 0.8 mi Calm Calm - N/A   Scattered Clouds
10:38 PM 64.4 °F 64.4 °F 100% 29.86 in 0.5 mi Calm Calm - N/A Fog Fog
10:53 PM 64.9 °F 64.0 °F 97% 29.86 in 0.8 mi Calm Calm - N/A   Partly Cloudy
10:59 PM 64.4 °F 64.4 °F 100% 29.87 in 1.0 mi SSW 3.5 mph - N/A   Mist
11:08 PM 64.4 °F 64.4 °F 100% 29.87 in 2.5 mi Calm Calm - N/A   Scattered Clouds
11:27 PM 64.4 °F 64.4 °F 100% 29.86 in 4.0 mi SW 4.6 mph - N/A   Partly Cloudy
11:34 PM 64.4 °F 64.4 °F 100% 29.87 in 1.8 mi WSW 5.8 mph - N/A   Scattered Clouds
11:36 PM 64.4 °F 64.4 °F 100% 29.87 in 0.8 mi WSW 4.6 mph - N/A   Mist
11:46 PM 64.4 °F 64.4 °F 100% 29.87 in 0.2 mi SW 3.5 mph - N/A Fog Fog
11:53 PM 64.9 °F 64.9 °F 100% 29.86 in 0.2 mi SSW 3.5 mph - N/A Fog Fog